Tracking 31027 objects as of 19-Jul-2025
HD Live streaming from Space Station
objects crossing your sky now

STARLINK-1845

Track STARLINK-1845 now!
10-day predictions
STARLINK-1845 is classified as:


NORAD ID: 47135
Int'l Code: 2020-088P
Perigee: 553.7 km
Apogee: 555.0 km
Inclination: 53.1 °
Period: 95.6 minutes
Semi major axis: 6925 km
RCS: Unknown
Launch date: November 25, 2020
Source: United States (US)
Launch site: AIR FORCE EASTERN TEST RANGE (AFETR)
Your satellite tracking list
SL-12 R/B(2)
Track 1 satellite(s)




NASA's NSSDC Master Catalog

Two Line Element Set (TLE):
1 47135U 20088P   25199.40775855 -.00000425  00000-0 -96526-5 0  9991
2 47135  53.0549 263.3538 0000959  93.1362 266.9737 15.06390125256662
Source of the keplerian elements: AFSPC